User: anonymous   Login
Location: ??
(35.4032°N, 139.3073°E)
Time: 03:33:57
(UTC+00:00)
Language:

Cosmos 1515 Rocket - Orbit

View from above orbital plane
View from above orbital plane
View from above satellite
View from above satellite

Ground track
Ground track

The orbit data is extracted from the following two-line orbital elements,

1 14552U 83122B   24167.59350847  .00000628  00000-0  71194-4 0  9996
2 14552  82.5233 203.3029 0017149  15.2628 344.9101 14.84675526167001
Epoch (UTC): 15 June 2024 14:14:39
Eccentricity: 0.0017149
inclination: 82.5233°
perigee height: 602 km
apogee height: 626 km
right ascension of ascending node: 203.3029°
argument of perigee: 15.2628°
revolutions per day: 14.84675526
mean anomaly at epoch: 344.9101°
orbit number at epoch: 16700

The dashed part of the orbit path shows where the satellite is in the earth's shadow,  

DLR